Dewpoint
59 60 60 61 61 60 58 58 57 55 55 55 55 56 58 58 57 57 57 57 56 56 54 53 51 50 49 50 50 54 53 54 54 53 53 53 51 50 50 48 48 51 52 51 51 52 49 50 51 52 52 53 53 55 51 48 51 52 53 50 48 50 51 47 44 45 47 50 48 40 43 41 35 33 36 43 41 38 38 42 43 41 38 35 38
59 60 60 60 60 60 59 58 56 55 55 56 54 53 55 58 60 58 57 57 56 51 49 55 52 50 47 48 51 50 52 52 54 54 51 53 53 54 51 49 48 50 52 50 51 50 53 49 50 52 51 51 52 42 43 46 41 42 47 50 47 49 49 49 45 45 45 49 48 39 45 42 39 35 43 45 43 43 37 36 43 43 39 36 36
58 59 60 60 61 60 59 57 56 57 57 57 55 51 54 55 55 58 57 55 56 56 52 53 52 50 48 49 46 49 49 52 54 53 53 53 52 53 54 50 51 52 51 49 45 50 50 50 49 51 54 52 52 52 50 47 41 41 45 46 47 47 46 46 48 46 45 45 50 41 44 46 44 36 34 38 39 37 35 34 34 36 35 38 34
57 58 60 61 61 62 58 57 57 57 58 58 56 54 53 53 53 56 54 54 49 54 53 52 54 53 52 48 48 50 52 54 52 49 50 52 52 51 50 52 52 51 50 47 43 49 50 50 51 51 51 50 51 51 50 50 51 48 46 48 50 46 50 51 47 45 45 44 42 36 41 46 44 39 35 34 38 44 37 37 37 36 37 36 38
57 55 56 59 60 61 61 59 57 57 58 58 58 57 56 54 55 52 54 53 52 55 50 51 53 52 54 49 47 49 51 54 53 53 54 54 53 54 51 50 53 52 51 51 50 50 51 52 48 50 51 51 52 50 49 51 44 50 48 46 43 48 51 51 50 47 46 47 46 45 46 43 40 41 38 37 36 36 37 38 37 40 43 42 40
57 58 58 58 59 59 60 60 58 57 58 59 58 58 56 56 55 55 50 50 56 55 50 51 45 47 51 51 49 48 48 53 52 53 54 56 55 55 55 55 54 53 54 53 51 53 53 52 53 50 50 52 54 53 54 49 49 50 48 49 44 48 53 51 52 49 46 47 49 49 45 45 44 45 42 41 44 38 39 42 43 43 44 45 45
60 58 58 58 58 58 59 60 61 61 61 61 61 58 57 57 55 53 53 53 52 54 54 51 52 49 47 50 49 50 48 47 52 53 53 54 55 54 56 56 55 56 54 54 51 54 54 54 55 55 53 53 53 53 53 54 53 53 52 51 46 50 49 48 47 48 48 48 47 48 47 47 49 45 41 42 40 40 43 44 45 42 46 45 44
57 57 59 59 59 59 61 61 61 61 61 61 60 60 59 59 58 56 55 54 53 49 50 52 51 50 48 47 48 49 49 48 48 49 49 51 53 54 55 55 53 56 55 54 56 56 55 56 56 54 55 54 53 55 55 54 53 52 55 52 52 51 51 50 49 46 47 48 46 47 47 46 50 46 41 42 42 44 43 45 44 45 44 45 43
57 58 56 57 57 58 60 61 60 59 61 61 60 60 60 59 56 55 58 58 57 53 53 51 51 48 49 49 47 49 50 49 47 47 49 49 52 55 56 54 57 55 57 56 57 57 56 57 56 54 53 51 48 50 49 53 57 55 55 53 52 51 49 48 49 48 48 47 47 48 45 45 46 47 47 45 44 43 46 45 44 44 44 43 43
56 56 56 57 58 57 58 59 59 59 60 61 59 60 59 58 59 58 56 56 57 58 57 57 53 51 50 50 49 52 52 53 50 46 47 50 54 53 57 57 57 57 57 57 57 57 56 57 57 55 52 51 47 43 42 43 46 53 54 53 54 53 51 49 49 48 49 46 46 47 46 46 44 48 47 47 46 45 45 45 42 43 42 42 44
54 55 54 56 57 57 58 57 57 57 58 59 59 59 58 59 59 58 57 58 59 58 57 55 56 56 53 52 52 55 54 55 45 43 45 47 55 58 57 58 57 57 57 56 54 54 56 56 57 56 56 53 53 45 43 41 41 40 41 42 47 53 51 51 48 48 48 48 47 45 45 46 46 45 45 44 46 43 43 43 43 42 41 41 40
53 51 51 53 53 53 56 56 57 57 58 56 58 57 57 59 58 57 59 59 57 57 58 56 54 54 55 52 53 54 54 51 43 45 45 45 51 57 57 56 56 55 54 53 53 54 54 57 59 59 58 58 59 56 47 41 40 39 38 37 37 37 42 46 47 49 49 47 47 47 46 45 46 46 46 46 45 46 44 42 41 41 41 41 40
41 44 43 44 45 56 50 51 56 57 57 57 57 57 56 57 56 58 58 60 60 58 56 56 56 55 56 54 53 54 55 43 43 44 45 46 48 52 54 55 54 55 55 53 51 51 54 55 56 58 54 55 55 56 54 48 40 39 39 38 38 35 34 33 36 47 47 47 45 47 46 47 46 46 47 46 45 43 42 41 42 43 42 41 40
40 40 41 42 42 43 44 47 49 51 53 56 57 56 57 57 59 58 60 59 58 57 57 58 58 57 57 56 56 57 57 44 43 44 45 45 46 49 53 54 55 54 54 53 52 51 55 52 50 51 55 54 54 54 55 49 45 44 44 45 43 38 35 34 33 33 40 47 45 44 49 48 46 47 47 46 44 43 43 42 43 41 41 40 41
39 40 41 40 40 41 40 43 44 48 54 54 53 55 55 57 58 58 58 59 58 56 57 57 56 57 57 58 57 56 57 47 42 42 43 44 43 47 54 56 55 55 55 54 53 54 53 51 47 45 49 55 51 47 53 51 50 50 49 49 47 45 44 42 41 44 48 49 43 49 47 46 46 45 43 43 41 42 42 40 41 40 40 40 40
35 38 38 38 38 39 40 41 43 43 45 46 50 54 56 57 56 57 57 58 58 57 57 57 57 57 57 56 56 54 57 44 41 40 40 41 42 49 53 55 55 56 54 57 55 53 54 51 47 46 53 47 39 37 41 50 52 50 49 48 44 40 36 36 36 36 40 42 42 42 38 36 39 38 37 39 40 39 37 37 36 36 36 35 34
36 37 37 37 37 37 37 39 42 42 43 44 45 48 49 51 55 57 57 56 57 57 57 57 57 57 56 55 55 55 54 42 41 42 41 41 43 50 53 53 53 54 55 56 56 55 54 54 52 53 50 45 38 36 36 41 51 49 49 47 46 43 40 41 36 35 35 34 34 34 35 35 35 34 33 35 36 37 37 35 36 36 34 32 33
36 35 35 36 36 37 38 35 38 40 42 42 44 47 47 48 49 52 54 55 55 56 57 57 57 56 56 56 56 56 55 46 41 43 41 41 44 50 51 51 51 52 52 55 53 51 48 47 53 48 45 41 36 36 36 47 51 49 48 47 46 43 42 41 41 39 35 35 35 34 33 32 33 33 34 33 33 34 36 35 36 35 35 35 34
34 33 35 34 34 32 35 36 37 39 40 42 46 45 46 46 46 48 49 52 53 54 53 56 57 56 55 55 54 55 56 50 41 41 40 40 43 50 52 52 52 51 51 51 50 47 44 44 47 45 42 39 35 35 37 45 50 49 48 47 45 44 43 42 42 41 41 40 39 42 41 35 40 39 41 35 34 36 37 38 38 37 35 35 36
34 35 35 35 34 34 34 35 38 40 38 41 44 45 45 44 46 46 47 46 47 49 52 53 55 55 54 55 57 56 56 55 48 42 41 40 41 50 53 54 52 51 51 50 47 46 43 38 38 36 35 35 35 35 37 41 52 49 48 45 45 46 44 45 46 45 45 44 44 43 44 40 39 40 42 37 36 36 38 39 40 39 37 36 36
36 35 34 33 33 33 33 35 37 37 36 39 40 41 42 43 45 46 45 45 46 49 50 53 55 56 57 57 56 54 55 56 54 42 41 41 40 40 53 51 51 53 53 52 47 45 42 39 40 36 35 35 35 35 36 37 40 43 42 40 40 44 41 42 41 38 40 40 40 42 42 42 42 41 42 42 39 38 39 40 41 41 39 36 34
35 34 34 33 35 35 36 38 39 40 38 38 38 39 41 42 43 44 44 43 44 46 48 50 51 53 55 57 57 56 54 52 55 46 41 39 39 40 48 50 47 52 52 52 45 44 40 38 36 36 34 34 34 34 34 34 34 34 31 31 31 32 37 41 42 42 43 41 40 39 39 36 35 36 36 36 38 41 40 41 41 39 37 37 35
35 35 35 35 36 36 37 38 39 38 38 39 38 38 38 38 40 41 41 42 43 43 44 46 48 52 54 54 55 56 56 54 50 45 40 39 40 40 41 44 40 51 51 49 46 43 43 38 36 35 34 34 34 34 33 33 33 31 32 31 30 30 35 39 39 40 38 38 39 37 35 35 36 35 35 36 37 38 37 36 37 38 37 37 37
33 34 35 35 36 35 34 36 37 38 37 37 37 37 37 37 38 39 39 40 40 40 41 44 45 49 51 52 53 54 54 52 46 44 41 40 40 39 37 37 40 47 49 50 45 43 37 35 35 34 34 34 33 33 33 32 30 31 31 32 31 32 39 39 37 40 37 35 34 35 36 35 34 34 34 37 36 36 38 38 37 36 37 37 35
36 35 34 33 34 33 35 35 36 36 37 37 36 36 36 36 34 34 35 35 35 36 37 39 40 43 51 52 50 52 52 50 47 43 40 40 40 38 37 37 38 43 50 52 44 42 35 34 34 33 32 32 32 31 31 32 32 31 32 31 35 38 39 39 39 39 36 34 34 35 33 33 34 35 38 37 37 36 35 37 38 37 35 35 35
34 34 32 33 34 32 33 33 33 35 36 35 35 35 36 35 35 33 32 32 32 35 36 37 38 38 48 50 49 50 52 49 48 45 42 42 40 38 37 37 38 41 44 42 36 34 33 33 33 32 32 33 35 33 31 32 31 31 31 34 39 39 35 37 38 37 35 33 32 33 33 34 34 35 35 36 36 35 34 34 33 32 33 32 32
34 34 34 33 34 33 34 34 33 34 34 33 34 35 34 34 34 33 33 32 31 30 30 30 33 37 39 46 47 48 49 49 47 46 45 45 44 40 41 39 36 36 39 37 35 36 34 34 32 32 33 34 35 33 34 33 34 35 35 36 37 35 36 34 34 35 33 32 32 33 33 33 34 33 35 33 32 33 32 32 32 32 32 32 31
34 34 34 34 34 34 34 33 34 34 33 33 33 32 33 35 35 35 34 33 34 36 37 36 34 33 40 48 49 51 51 50 48 47 46 46 45 44 43 43 44 43 41 40 39 39 39 34 34 35 35 34 32 33 33 35 35 34 37 37 34 30 31 30 31 32 36 34 33 33 33 34 34 33 32 33 32 32 32 32 32 31 32 31 30
35 34 34 34 34 35 35 34 34 34 34 34 33 33 33 34 34 35 35 35 38 38 36 37 42 47 45 48 50 49 48 48 47 43 45 42 42 44 43 43 43 40 38 36 37 36 36 37 36 36 36 33 31 31 32 34 34 35 38 37 34 34 33 30 34 34 32 32 32 32 28 32 33 33 32 31 33 31 31 32 31 32 31 32 31
34 35 34 34 34 34 35 34 34 34 34 34 34 34 32 33 33 35 34 34 33 33 34 38 45 49 42 39 40 45 47 48 39 40 40 40 39 39 39 39 37 37 34 33 33 32 33 33 34 34 33 32 31 31 33 34 32 31 29 28 31 32 31 31 31 27 30 30 30 28 30 28 29 31 30 30 31 31 31 31 31 32 32 31 31
34 35 35 34 35 35 35 35 35 35 35 35 35 34 34 33 33 33 33 33 33 33 34 36 38 40 42 42 40 35 35 35 36 38 39 39 38 37 37 36 35 34 33 33 32 32 32 32 32 32 31 32 31 32 33 32 31 30 29 29 31 28 27 30 29 26 27 27 29 29 28 29 29 28 28 29 29 29 30 30 31 33 32 31 30
34 35 35 35 36 35 35 35 35 35 34 34 34 34 34 33 34 33 33 33 33 34 35 35 38 38 37 38 38 41 36 36 36 36 36 37 37 36 36 34 34 33 33 33 32 32 32 32 31 31 32 32 32 32 32 31 30 30 30 30 30 28 28 28 27 31 29 29 27 27 27 28 28 27 29 28 28 28 29 29 30 30 31 31 31
35 35 35 36 36 36 35 35 35 35 35 34 35 34 34 33 33 33 33 33 33 34 35 36 36 38 36 36 38 39 39 37 36 36 36 35 36 36 35 34 34 34 33 32 32 31 32 32 32 32 32 31 31 31 31 32 30 31 30 29 28 28 29 27 28 31 29 28 27 28 28 28 28 28 28 28 28 28 28 29 30 30 31 31 31
36 36 36 36 36 35 35 35 35 35 35 35 35 35 34 35 34 33 33 32 32 34 35 35 35 36 37 36 36 37 36 36 37 37 36 35 35 34 34 34 34 33 32 32 32 31 33 33 32 32 32 33 31 31 31 31 31 31 29 29 30 31 31 32 30 28 28 28 29 29 27 28 27 27 27 26 28 27 27 28 29 30 30 30 30
36 35 34 34 36 36 37 37 36 36 36 35 35 35 35 34 34 33 33 32 32 32 32 35 35 35 38 37 35 36 36 37 36 36 36 35 35 34 34 35 33 35 39 39 34 32 33 32 32 33 33 31 31 31 32 33 31 31 30 30 30 27 25 27 29 30 28 29 29 29 27 27 27 27 27 27 27 27 27 28 29 30 30 30 31
36 36 37 38 40 40 40 39 38 37 36 36 35 35 35 34 34 34 33 33 32 32 31 37 38 36 36 37 36 35 35 35 35 35 34 34 34 35 34 33 33 33 35 39 37 35 34 35 35 35 33 32 32 31 32 32 31 30 31 30 27 25 27 28 29 27 27 28 29 27 28 27 28 27 27 27 26 27 28 29 29 30 30 30 30
36 36 37 38 39 39 39 38 38 37 35 35 35 35 35 34 34 34 33 32 32 32 33 38 39 39 37 36 35 34 34 34 34 34 34 34 34 36 37 35 34 35 33 38 38 35 35 35 36 34 33 34 38 33 32 31 32 31 29 27 26 27 27 27 29 26 26 26 27 27 26 26 27 26 27 26 27 28 29 29 29 29 29 30 30
36 36 36 36 36 36 36 35 36 35 36 36 36 36 35 34 34 33 33 33 32 33 34 39 37 36 36 35 36 35 34 34 34 34 34 34 34 35 35 34 35 35 34 37 39 39 37 36 37 35 33 37 33 33 31 31 31 29 28 28 27 25 27 26 27 28 27 28 27 26 27 27 27 27 28 29 28 29 29 29 29 30 30 31 31
36 35 34 34 34 36 36 36 36 37 37 36 36 35 34 34 34 33 33 33 32 33 33 39 41 39 37 36 35 35 34 34 33 34 34 34 34 34 35 36 37 37 39 38 39 39 38 36 35 34 36 32 32 31 31 30 30 29 29 26 26 26 24 24 25 26 28 26 27 27 28 28 29 28 28 27 27 28 28 29 30 30 31 31 31
36 36 35 34 35 35 36 35 37 38 35 35 35 34 33 33 33 34 34 34 33 34 35 37 41 42 39 38 34 35 34 34 34 34 33 33 34 35 35 35 37 37 38 39 39 40 38 36 36 34 32 33 32 30 30 30 30 28 26 25 22 25 23 26 28 28 27 26 27 28 29 27 28 27 27 27 27 28 29 30 30 31 30 30 30
36 36 35 34 34 36 35 35 35 35 35 34 34 34 34 34 34 34 35 35 35 36 37 38 38 38 38 36 34 35 35 34 34 34 34 33 33 35 35 36 36 37 36 37 38 37 37 35 33 32 31 30 30 30 29 30 28 28 25 22 23 25 25 28 29 28 27 27 28 28 27 27 28 27 27 27 29 29 30 30 30 30 31 31 31
35 35 35 35 35 35 35 35 35 35 35 34 35 35 34 35 35 35 35 34 34 35 36 35 38 37 33 33 33 32 35 34 33 33 35 36 33 35 34 36 36 36 36 37 37 35 35 35 32 30 30 30 29 29 28 27 25 23 25 25 26 25 26 28 28 28 27 28 27 27 27 28 28 28 27 30 29 29 29 30 30 31 30 31 31
35 35 34 34 35 35 34 35 35 35 35 35 35 34 34 35 35 35 36 35 33 34 34 33 34 33 33 33 33 32 33 31 32 33 35 36 37 34 34 34 35 37 37 35 33 32 31 30 30 29 28 28 29 27 27 25 24 25 24 25 25 26 26 26 27 28 28 27 27 27 27 27 28 29 27 29 28 29 30 30 30 30 30 31 31
34 34 34 34 34 34 35 35 35 35 35 34 34 34 34 35 35 39 39 36 35 35 33 32 32 32 32 33 33 33 32 31 32 34 35 35 37 34 35 35 35 33 32 32 32 32 30 29 29 29 29 28 27 28 27 25 25 25 25 25 26 26 26 27 27 27 28 27 28 28 28 27 28 28 28 28 28 29 29 30 30 30 30 31 31
34 34 34 33 33 32 33 34 35 35 34 34 34 35 34 37 39 39 36 37 34 33 32 32 32 33 33 34 34 34 34 34 33 34 34 34 34 34 34 34 34 34 33 31 31 31 30 29 29 29 27 27 27 27 27 27 28 28 27 27 27 27 27 27 27 27 27 27 28 28 28 28 27 27 28 28 29 29 29 29 29 30 30 30 31
33 34 34 33 32 33 34 35 34 35 34 34 35 35 36 39 39 40 38 34 33 33 33 33 33 33 34 34 34 34 35 35 34 34 33 33 33 33 33 33 33 33 32 31 31 31 31 30 29 28 28 27 27 26 26 27 28 29 29 29 29 28 28 28 28 27 27 27 28 28 29 29 28 29 29 28 29 30 29 29 30 30 30 30 31
34 33 33 32 32 32 33 34 33 33 33 34 35 36 38 41 42 36 32 32 33 33 33 34 34 34 35 35 35 35 35 34 34 34 34 34 34 34 33 34 33 32 31 31 31 30 30 29 28 28 28 27 28 28 26 27 29 29 29 28 27 27 27 28 28 28 28 29 28 28 28 28 29 29 29 30 30 30 29 29 29 29 30 30 30
33 32 32 32 32 32 32 33 32 32 32 33 33 33 33 33 34 34 32 32 32 32 33 34 34 34 35 35 34 34 34 34 34 34 34 33 33 32 32 32 30 31 31 32 32 31 30 29 29 28 28 28 28 28 29 29 29 28 27 27 26 26 26 27 27 27 28 28 28 27 27 28 28 29 30 30 30 29 28 28 29 29 30 30 30
33 33 32 32 32 32 31 31 32 31 32 32 33 33 33 33 32 33 33 33 33 33 33 33 34 34 34 35 35 34 34 34 34 34 34 33 32 32 31 31 31 31 31 30 30 31 30 30 30 29 28 28 28 29 30 30 29 28 27 26 26 26 26 26 27 27 27 29 28 28 28 28 28 29 30 30 29 28 29 29 29 29 29 30 31
33 33 33 33 32 32 32 32 31 32 32 32 32 33 33 34 33 32 32 33 33 33 33 34 34 34 34 34 35 35 35 34 34 34 33 33 32 31 31 31 31 31 30 30 30 30 30 30 30 30 29 28 29 30 29 29 28 28 27 27 26 26 26 26 27 27 27 28 28 28 29 29 29 30 30 29 29 28 28 29 30 29 29 29 30
32 32 33 33 33 32 32 31 31 31 31 32 32 32 33 34 34 34 33 33 33 33 33 34 34 34 35 35 35 36 36 36 34 33 32 31 31 31 31 30 30 31 31 31 31 30 30 30 30 29 28 29 29 28 28 27 27 27 27 27 26 25 25 26 26 26 27 27 28 29 29 29 29 30 29 30 31 28 29 30 29 29 29 29 30